Regional Weather Roundup
Issued by NWS Kansas City/Pleasant Hill, MO

Home | Current Version | Previous Version | Graphics & Text | Print | Product List | Glossary Off
Versions: 1 2 3 4 5 6 7 8 9 10 11 12 13 14 15 16 17 18 19 20 21 22 23 24 25 26 27 28

000
ASUS43 KEAX 301510
RWREAX

WEATHER ROUNDUP FOR EASTERN KANSAS AND NORTHWEST MISSOURI
NATIONAL WEATHER SERVICE KANSAS CITY/PLEASANT HILL MO
1000 AM CDT MON MAY 30 2016

KSZ040-057-103>105-MOZ028-029-037-043-301600-
...KANSAS CITY METROPOLITAN AREA...

CITY           SKY/WX    TMP DP  RH WIND       PRES   REMARKS
K.C. INTL      PTSUNNY   77  67  71 S7        30.04F
K.C. DOWNTOWN  MOSUNNY   79  67  66 S6        30.03F
LEES SUMMIT    MOSUNNY   77  65  66 S6        30.06S
OLATHE - IXD   CLOUDY    75  66  73 S6        30.05F
OLATHE - OJC   CLOUDY    74  67  78 S6        30.05F
LAWRENCE       SUNNY     76  67  73 SE7       30.04R

$$

MOZ001>008-011>017-020>025-030>033-038>040-044>046-053-054-301600-
...NORTHERN AND CENTRAL MISSOURI...

CITY           SKY/WX    TMP DP  RH WIND       PRES   REMARKS
ST. JOSEPH     SUNNY     77  67  71 S5        30.02F
MOSBY          MOSUNNY   77  66  69 S3        30.04F
WARRENSBURG    MOSUNNY   77  64  65 S3        30.05F
WHITEMAN AFB   NOT AVBL
CLINTON        MOSUNNY   77  68  73 CALM      30.07S
SEDALIA        SUNNY     80  69  69 SW6       30.08S
WARSAW         NOT AVBL
CHILLICOTHE      N/A     79  68  69 S6        30.05F
KIRKSVILLE     SUNNY     80  66  62 VRB3      30.07F

$$

MOZ041-047>049-056>058-063>065-088>090-097-301600-
...EASTERN AND SOUTHERN MISSOURI...

CITY           SKY/WX    TMP DP  RH WIND       PRES   REMARKS
ST. LOUIS INTL PTSUNNY   83  66  56 W3        30.08F
SPIRIT OF STL  SUNNY     80  67  64 W5        30.06F
COLUMBIA       SUNNY     80  66  62 S5        30.07F
JEFFERSON CITY MOSUNNY   77  66  68 E3        30.07F
ROLLA          SUNNY     79  65  62 CALM      30.09S
SPRINGFIELD    SUNNY     79  61  53 VRB3      30.09S
BRANSON        CLOUDY    75  66  73 CALM      30.11S
JOPLIN         CLOUDY    75  67  76 S7        30.07F
WEST PLAINS    MOSUNNY   78  63  59 CALM      30.12F

$$

IAZ060-094-KSZ022-034>040-054-083-096-NEZ052-066-093-301600-
...KANSAS...SOUTHEAST NEBRASKA AND IOWA...

CITY           SKY/WX    TMP DP  RH WIND       PRES   REMARKS
TOPEKA           N/A     77  65  66 S3        30.03R
MANHATTAN      SUNNY     75  64  68 S6        30.02S
EMPORIA        CLOUDY    73  64  73 SW10      30.05S
CHANUTE        CLOUDY    73  65  75 S6        30.05S
WICHITA        MOSUNNY   74  59  59 S9        30.04F
OMAHA          PTSUNNY   75  64  68 S7        30.00S
LINCOLN        CLOUDY    74  62  66 SE5       30.02S
FALLS CITY     SUNNY     79  66  64 S6        30.00F
LAMONI         SUNNY     77  63  61 SW9       30.04S
DES MOINES     MOSUNNY   78  63  59 SW5       30.02S

$$





USA.gov is the U.S. government's official web portal to all federal, state and local government web resources and services.